Regional Weather Roundup
Issued by NWS

Home | Current Version | Previous Version | Text Only | Print | Product List | Glossary Off
Versions: 1 2 3 4 5 6 7 8 9 10 11 12 13 14 15 16 17 18 19 20 21 22 23 24 25 26 27 28 29 30 31 32 33 34 35 36 37 38 39 40 41 42 43 44 45 46 47 48 49 50

000
ASUS43 KLSX 241907
RWRMO

WEATHER SUMMARY FOR MISSOURI
NATIONAL WEATHER SERVICE SPRINGFIELD MO
100 PM CST FRI NOV 24 2017

NOTE: "FAIR" INDICATES FEW OR NO CLOUDS BELOW 12,000 FEET WITH NO
       SIGNIFICANT WEATHER AND/OR OBSTRUCTIONS TO VISIBILITY.
       CURRENT SKY AND/OR WEATHER CONDITIONS ARE NOT AVAILABLE FOR
       CHILLICOTHE AND FARMINGTON.

MOZ001>031-035>038-043-044-053-054-242000-
...NORTHERN AND WESTERN MISSOURI...

CITY           SKY/WX    TMP DP  RH WIND       PRES   REMARKS
KANSAS CTY INT PTSUNNY   70  38  31 SW21G29   29.55F
KANSAS C DTWN  SUNNY     72  38  29 SW22G32   29.55F
LEE`S SUMMIT   SUNNY     72  38  29 SW24G32   29.58F
ST JOSEPH      SUNNY     70  39  32 SW21G26   29.53F
CHILLICOTHE      N/A     73  39  29 SW12G25   29.53F
KIRKSVILLE     SUNNY     72  39  30 SW22G30   29.52F

$$
MOZ066>068-077>081-088>096-101>105-242000-
...SOUTHWEST MISSOURI...

CITY           SKY/WX    TMP DP  RH WIND       PRES   REMARKS
SPRINGFIELD    SUNNY     72  35  25 SW15G29   29.74F
JOPLIN         SUNNY     73  36  25 S25G35    29.72F
BRANSON        MOSUNNY   73  32  21 SW12G21   29.81F

$$
MOZ032>034-039>042-045>050-055>058-069>072-242000-
...CENTRAL MISSOURI...

CITY           SKY/WX    TMP DP  RH WIND       PRES   REMARKS
COLUMBIA       SUNNY     72  36  26 S25       29.63F
JEFFERSON CITY SUNNY     74  35  24 SW13G21   29.64F
ROLLA          SUNNY     71  35  26 SW20G35   29.71F
SEDALIA        LGT RAIN  73  39  29 SW24G33   29.63F
WHITEMAN AFB   SUNNY     71  37  29 SW22G31   29.55F
WARRENSBURG    SUNNY     70  36  28 S22G30    29.60F
OSAGE BEACH    SUNNY     74  35  24 SW16G23   29.69F

$$
MOZ051-052-059>065-242000-
...EAST CENTRAL MISSOURI...

CITY           SKY/WX    TMP DP  RH WIND       PRES   REMARKS
ST LOUIS INTL  MOSUNNY   69  37  30 S10       29.69F
SPIRIT OF STL  SUNNY     72  37  28 S17G28    29.67F
ST CHARLES     SUNNY     70  35  27 S17       29.67F

$$
MOZ072>076-082>087-097>100-106>115-242000-
...SOUTH CENTRAL AND SOUTHEAST MISSOURI...

CITY           SKY/WX    TMP DP  RH WIND       PRES   REMARKS
CAPE GIRARDEAU SUNNY     59  36  42 S13G21    29.85F
FARMINGTON     SUNNY     66  36  32 S16       29.77F
POPLAR BLUFF   SUNNY     62  36  37 S15       29.84F
WEST PLAINS    SUNNY     68  31  25 SW10      29.81F

$$



USA.gov is the U.S. government's official web portal to all federal, state and local government web resources and services.